Back to catalog

COSMOS 2528 DEB

AliveLEO
NORAD 45037·DEBRIS·🇷🇺 Russia

Launched Oct 25, 2018 from Plesetsk Cosmodrome

Loading…

Next Passes (next 24 hours)

TLE

FreshSource: Space-Track

Epoch: Sep 14, 2026, 08:12 UTC

1 45037U 18082C   26257.34175103  .00000713  00000-0  53837-3 0  9994
2 45037  67.2255 243.7648 0016286 282.0835  77.8427 13.99632123339215

Track COSMOS 2528 DEB in real time with AllMySat

Download on the App Store